Location: Hains Lake
(37.8540°N, 99.8578°W)
Time: 01:06:28
(UTC+00:00)

STARLINK 1034 - Pass Details

Date: 11 December 2019
Orbit: 449 x 451 km, 53.0° (Epoch: 19 January)

Event Time Altitude Azimuth Distance (km) Brightness Sun altitude
Exits shadow 12:43:44 18° 271° (W) 1,140 4.7 -11.8°
Maximum altitude 12:45:21 25° 230° (SW) 907 4.5 -11.5°
Drops below altitude 10° 12:48:13 10° 173° (S) 1,521 6.3 -11.0°
Sets 12:50:32 0° 160° (SSE) 2,386 7.5 -10.5°
